| time (UTC) | temp C | wind direction | speed KPH | gust KPH | rain 1hr cm | rain 24hr cm | rain mn cm | humidity % | barometer mb |
| 20260906155151 | 26 | 212 | 1.6 | 12.9 | 0.00 | 0.00 | 0.00 | 84 | 1018.8 |
| 20260906154646 | 26 | 143 | 1.6 | 16.1 | 0.00 | 0.00 | 0.00 | 84 | 1018.9 |
| 20260906154139 | 26 | 130 | 1.6 | 16.1 | 0.00 | 0.00 | 0.00 | 83 | 1018.9 |
| 20260906153633 | 26 | 193 | 1.6 | 9.7 | 0.00 | 0.00 | 0.00 | 84 | 1019.0 |
| 20260906153128 | 26 | 101 | 1.6 | 9.7 | 0.00 | 0.00 | 0.00 | 83 | 1019.0 |
| 20260906152622 | 26 | 145 | 1.6 | 12.9 | 0.00 | 0.00 | 0.00 | 85 | 1019.0 |
| 20260906152115 | 26 | 197 | 1.6 | 12.9 | 0.00 | 0.00 | 0.00 | 86 | 1019.0 |
| 20260906151609 | 26 | 127 | 0.0 | 11.3 | 0.00 | 0.00 | 0.00 | 88 | 1019.0 |
| 20260906151103 | 25 | 156 | 1.6 | 11.3 | 0.00 | 0.00 | 0.00 | 86 | 1019.0 |
| 20260906150557 | 25 | 175 | 1.6 | 9.7 | 0.00 | 0.00 | 0.00 | 86 | 1019.0 |
| 20260906150051 | 26 | 120 | 1.6 | 12.9 | 0.00 | 0.00 | 0.00 | 86 | 1019.0 |
| 20260906145039 | 25 | 116 | 1.6 | 11.3 | 0.00 | 0.00 | 0.00 | 88 | 1019.0 |
| 20260906144534 | 25 | 105 | 1.6 | 14.5 | 0.00 | 0.00 | 0.00 | 88 | 1019.0 |
| 20260906144026 | 25 | 164 | 1.6 | 14.5 | 0.00 | 0.00 | 0.00 | 89 | 1018.9 |
| 20260906143521 | 25 | 117 | 0.0 | 11.3 | 0.00 | 0.00 | 0.00 | 89 | 1018.8 |
| 20260906143015 | 25 | 172 | 0.0 | 8.0 | 0.00 | 0.00 | 0.00 | 90 | 1018.7 |
| 20260906142508 | 25 | 156 | 0.0 | 9.7 | 0.00 | 0.00 | 0.00 | 91 | 1018.7 |
| 20260906142003 | 24 | 134 | 0.0 | 9.7 | 0.00 | 0.00 | 0.00 | 91 | 1018.8 |
| 20260906141458 | 24 | 123 | 0.0 | 8.0 | 0.00 | 0.00 | 0.00 | 92 | 1018.8 |
| 20260906140445 | 23 | 177 | 0.0 | 6.4 | 0.00 | 0.00 | 0.00 | 92 | 1018.8 |
| 20260906135939 | 23 | 129 | 0.0 | 8.0 | 0.00 | 0.00 | 0.00 | 93 | 1018.8 |
| 20260906135434 | 23 | 111 | 0.0 | 8.0 | 0.00 | 0.00 | 0.00 | 93 | 1018.8 |
| 20260906134928 | 23 | 129 | 0.0 | 1.6 | 0.00 | 0.00 | 0.00 | 93 | 1018.8 |
| 20260906133916 | 23 | 224 | 0.0 | 3.2 | 0.00 | 0.00 | 0.00 | 94 | 1018.7 |
| 20260906133409 | 23 | 137 | 0.0 | 3.2 | 0.00 | 0.00 | 0.00 | 95 | 1018.7 |
| 20260906132903 | 23 | 113 | 0.0 | 3.2 | 0.00 | 0.00 | 0.00 | 95 | 1018.7 |
| 20260906132357 | 23 | 131 | 0.0 | 6.4 | 0.00 | 0.00 | 0.00 | 95 | 1018.6 |
| 20260906131348 | 22 | 129 | 0.0 | 4.8 | 0.00 | 0.00 | 0.00 | 95 | 1018.5 |
| 20260906130848 | 22 | 72 | 0.0 | 3.2 | 0.00 | 0.00 | 0.00 | 95 | 1018.4 |
| 20260906130347 | 22 | 126 | 0.0 | 0.0 | 0.00 | 0.00 | 0.00 | 95 | 1018.4 |
| 20260906125852 | 22 | 98 | 0.0 | 0.0 | 0.00 | 0.00 | 0.00 | 95 | 1018.3 |
| 20260906125351 | 21 | 109 | 0.0 | 0.0 | 0.00 | 0.00 | 0.00 | 95 | 1018.4 |
| 20260906124848 | 21 | 91 | 0.0 | 0.0 | 0.00 | 0.00 | 0.00 | 95 | 1018.4 |
| 20260906124347 | 21 | 117 | 0.0 | 1.6 | 0.00 | 0.00 | 0.00 | 95 | 1018.4 |
| 20260906123846 | 21 | 134 | 0.0 | 1.6 | 0.00 | 0.00 | 0.00 | 95 | 1018.5 |
| 20260906122847 | 21 | 94 | 0.0 | 0.0 | 0.00 | 0.00 | 0.00 | 95 | 1018.5 |
| 20260906122346 | 21 | 95 | 0.0 | 0.0 | 0.00 | 0.00 | 0.00 | 95 | 1018.5 |
| 20260906121848 | 21 | 95 | 0.0 | 0.0 | 0.00 | 0.00 | 0.00 | 95 | 1018.4 |
| 20260906121347 | 20 | 117 | 0.0 | 0.0 | 0.00 | 0.00 | 0.00 | 95 | 1018.4 |
| 20260906120851 | 20 | 120 | 0.0 | 0.0 | 0.00 | 0.00 | 0.00 | 95 | 1018.4 |
| 20260906120344 | 20 | 120 | 0.0 | 0.0 | 0.00 | 0.00 | 0.00 | 95 | 1018.4 |
| 20260906115845 | 20 | 120 | 0.0 | 0.0 | 0.00 | 0.00 | 0.00 | 95 | 1018.3 |
| 20260906115345 | 20 | 120 | 0.0 | 0.0 | 0.00 | 0.00 | 0.00 | 95 | 1018.2 |
| 20260906114839 | 20 | 120 | 0.0 | 0.0 | 0.00 | 0.00 | 0.00 | 95 | 1018.2 |
| 20260906114337 | 20 | 120 | 0.0 | 0.0 | 0.00 | 0.00 | 0.00 | 95 | 1018.3 |
| 20260906113834 | 20 | 120 | 0.0 | 0.0 | 0.00 | 0.00 | 0.00 | 95 | 1018.2 |
| 20260906113331 | 20 | 120 | 0.0 | 0.0 | 0.00 | 0.00 | 0.00 | 95 | 1018.2 |
| 20260906112832 | 20 | 120 | 0.0 | 0.0 | 0.00 | 0.00 | 0.00 | 95 | 1018.2 |
| 20260906112333 | 20 | 120 | 0.0 | 0.0 | 0.00 | 0.00 | 0.00 | 95 | 1018.2 |
| 20260906111829 | 20 | 120 | 0.0 | 0.0 | 0.00 | 0.00 | 0.00 | 95 | 1018.1 |
| 20260906111330 | 20 | 120 | 0.0 | 0.0 | 0.00 | 0.00 | 0.00 | 95 | 1018.0 |
| 20260906110833 | 20 | 120 | 0.0 | 0.0 | 0.00 | 0.00 | 0.00 | 95 | 1018.0 |
| 20260906110330 | 20 | 120 | 0.0 | 0.0 | 0.00 | 0.00 | 0.00 | 95 | 1018.1 |
| 20260906105833 | 20 | 120 | 0.0 | 0.0 | 0.00 | 0.00 | 0.00 | 95 | 1018.1 |
| 20260906105327 | 20 | 120 | 0.0 | 0.0 | 0.00 | 0.00 | 0.00 | 95 | 1018.1 |
| 20260906104826 | 20 | 120 | 0.0 | 0.0 | 0.00 | 0.00 | 0.00 | 95 | 1018.0 |
| 20260906103823 | 20 | 120 | 0.0 | 0.0 | 0.00 | 0.00 | 0.00 | 95 | 1018.0 |
| 20260906103325 | 20 | 120 | 0.0 | 0.0 | 0.00 | 0.00 | 0.00 | 95 | 1018.0 |
| 20260906102825 | 20 | 120 | 0.0 | 0.0 | 0.00 | 0.00 | 0.00 | 95 | 1018.0 |
| 20260906102320 | 20 | 120 | 0.0 | 0.0 | 0.00 | 0.00 | 0.00 | 95 | 1017.7 |
| 20260906101313 | 20 | 120 | 0.0 | 0.0 | 0.00 | 0.00 | 0.00 | 95 | 1017.6 |
| 20260906100813 | 20 | 124 | 0.0 | 0.0 | 0.00 | 0.00 | 0.00 | 95 | 1017.5 |
| 20260906100313 | 20 | 124 | 0.0 | 0.0 | 0.00 | 0.00 | 0.00 | 95 | 1017.6 |
| 20260906095814 | 20 | 124 | 0.0 | 0.0 | 0.00 | 0.00 | 0.00 | 95 | 1017.7 |
| 20260906094810 | 20 | 124 | 0.0 | 0.0 | 0.00 | 0.00 | 0.00 | 95 | 1017.7 |
| 20260906094310 | 20 | 124 | 0.0 | 0.0 | 0.00 | 0.00 | 0.00 | 95 | 1017.7 |
| 20260906093810 | 20 | 124 | 0.0 | 0.0 | 0.00 | 0.00 | 0.00 | 95 | 1017.6 |
| 20260906093308 | 20 | 124 | 0.0 | 0.0 | 0.00 | 0.00 | 0.00 | 95 | 1017.5 |
| 20260906092805 | 20 | 124 | 0.0 | 0.0 | 0.00 | 0.00 | 0.00 | 95 | 1017.3 |
| 20260906092307 | 20 | 124 | 0.0 | 0.0 | 0.00 | 0.00 | 0.00 | 95 | 1017.3 |
| 20260906091810 | 21 | 120 | 0.0 | 0.0 | 0.00 | 0.00 | 0.00 | 95 | 1017.3 |
| 20260906091304 | 21 | 114 | 0.0 | 0.0 | 0.00 | 0.00 | 0.00 | 95 | 1017.3 |
| 20260906090805 | 21 | 109 | 0.0 | 0.0 | 0.00 | 0.00 | 0.00 | 95 | 1017.3 |
| 20260906090305 | 21 | 115 | 0.0 | 0.0 | 0.00 | 0.00 | 0.00 | 95 | 1017.3 |
| 20260906085759 | 21 | 115 | 0.0 | 0.0 | 0.00 | 0.00 | 0.00 | 95 | 1017.2 |
| 20260906085258 | 21 | 116 | 0.0 | 0.0 | 0.00 | 0.00 | 0.00 | 95 | 1017.3 |
| 20260906084800 | 21 | 115 | 0.0 | 0.0 | 0.00 | 0.00 | 0.00 | 95 | 1017.3 |
| 20260906084258 | 21 | 115 | 0.0 | 0.0 | 0.00 | 0.00 | 0.00 | 95 | 1017.3 |
| 20260906083757 | 21 | 115 | 0.0 | 0.0 | 0.00 | 0.00 | 0.00 | 95 | 1017.3 |
| 20260906083256 | 21 | 116 | 0.0 | 0.0 | 0.00 | 0.00 | 0.00 | 95 | 1017.2 |
| 20260906082757 | 21 | 116 | 0.0 | 0.0 | 0.00 | 0.00 | 0.00 | 95 | 1017.1 |
| 20260906082255 | 21 | 115 | 0.0 | 0.0 | 0.00 | 0.00 | 0.00 | 95 | 1017.0 |
| 20260906081756 | 21 | 115 | 0.0 | 0.0 | 0.00 | 0.00 | 0.00 | 95 | 1016.9 |
| 20260906081251 | 21 | 115 | 0.0 | 0.0 | 0.00 | 0.00 | 0.00 | 95 | 1017.0 |
| 20260906080752 | 21 | 115 | 0.0 | 0.0 | 0.00 | 0.00 | 0.00 | 95 | 1016.9 |
| 20260906080253 | 21 | 115 | 0.0 | 0.0 | 0.00 | 0.00 | 0.00 | 95 | 1017.0 |
| 20260906075755 | 21 | 132 | 0.0 | 0.0 | 0.00 | 0.00 | 0.00 | 95 | 1016.9 |
| 20260906075252 | 21 | 133 | 0.0 | 0.0 | 0.00 | 0.00 | 0.00 | 95 | 1016.9 |
| 20260906073748 | 21 | 148 | 0.0 | 0.0 | 0.00 | 0.00 | 0.00 | 95 | 1016.8 |
| 20260906072746 | 21 | 117 | 0.0 | 0.0 | 0.00 | 0.00 | 0.00 | 94 | 1017.0 |
| 20260906072247 | 22 | 117 | 0.0 | 0.0 | 0.00 | 0.00 | 0.00 | 95 | 1017.1 |
| 20260906071747 | 22 | 117 | 0.0 | 0.0 | 0.00 | 0.00 | 0.00 | 95 | 1017.1 |
| 20260906070746 | 22 | 128 | 0.0 | 0.0 | 0.00 | 0.00 | 0.00 | 95 | 1017.2 |
| 20260906070245 | 22 | 98 | 0.0 | 0.0 | 0.00 | 0.00 | 0.00 | 95 | 1017.4 |
| 20260906065748 | 22 | 98 | 0.0 | 0.0 | 0.00 | 0.00 | 0.00 | 95 | 1017.4 |
| 20260906065243 | 22 | 98 | 0.0 | 0.0 | 0.00 | 0.00 | 0.00 | 95 | 1017.3 |
| 20260906064745 | 22 | 98 | 0.0 | 0.0 | 0.00 | 0.00 | 0.00 | 95 | 1017.3 |
| 20260906063743 | 22 | 126 | 0.0 | 0.0 | 0.00 | 0.00 | 0.00 | 95 | 1017.5 |
| 20260906063243 | 22 | 125 | 0.0 | 0.0 | 0.00 | 0.00 | 0.00 | 95 | 1017.5 |
| 20260906062745 | 22 | 126 | 0.0 | 0.0 | 0.00 | 0.00 | 0.00 | 94 | 1017.5 |
| 20260906062241 | 22 | 125 | 0.0 | 0.0 | 0.00 | 0.00 | 0.00 | 94 | 1017.5 |
| 20260906061743 | 22 | 126 | 0.0 | 0.0 | 0.00 | 0.00 | 0.00 | 94 | 1017.5 |
| 20260906061240 | 22 | 125 | 0.0 | 0.0 | 0.00 | 0.00 | 0.00 | 94 | 1017.4 |
| 20260906060235 | 22 | 126 | 0.0 | 0.0 | 0.00 | 0.00 | 0.00 | 94 | 1017.4 |
| 20260906055737 | 22 | 117 | 0.0 | 0.0 | 0.00 | 0.00 | 0.00 | 94 | 1017.4 |
| 20260906055237 | 22 | 117 | 0.0 | 0.0 | 0.00 | 0.00 | 0.00 | 94 | 1017.3 |
| 20260906053735 | 22 | 117 | 0.0 | 0.0 | 0.00 | 0.00 | 0.00 | 94 | 1017.5 |
| 20260906053237 | 22 | 117 | 0.0 | 0.0 | 0.00 | 0.00 | 0.00 | 93 | 1017.4 |
| 20260906052737 | 22 | 117 | 0.0 | 0.0 | 0.00 | 0.00 | 0.00 | 93 | 1017.4 |
| 20260906052235 | 22 | 122 | 0.0 | 0.0 | 0.00 | 0.00 | 0.00 | 93 | 1017.4 |
| 20260906051735 | 22 | 123 | 0.0 | 0.0 | 0.00 | 0.00 | 0.00 | 93 | 1017.4 |
| 20260906051237 | 22 | 127 | 0.0 | 0.0 | 0.00 | 0.00 | 0.00 | 93 | 1017.4 |
| 20260906050737 | 22 | 123 | 0.0 | 0.0 | 0.00 | 0.00 | 0.00 | 93 | 1017.4 |
| 20260906050238 | 22 | 131 | 0.0 | 0.0 | 0.00 | 0.00 | 0.00 | 93 | 1017.4 |
| 20260906045736 | 23 | 138 | 0.0 | 0.0 | 0.00 | 0.00 | 0.00 | 93 | 1017.5 |
| 20260906045235 | 23 | 100 | 0.0 | 0.0 | 0.00 | 0.00 | 0.00 | 93 | 1017.6 |
| 20260906044739 | 23 | 112 | 0.0 | 0.0 | 0.00 | 0.00 | 0.00 | 93 | 1017.6 |
| 20260906044233 | 23 | 87 | 0.0 | 0.0 | 0.00 | 0.00 | 0.00 | 93 | 1017.6 |
| 20260906043226 | 23 | 103 | 0.0 | 0.0 | 0.00 | 0.00 | 0.00 | 93 | 1017.7 |
| 20260906042727 | 23 | 150 | 0.0 | 0.0 | 0.00 | 0.00 | 0.00 | 93 | 1017.7 |
| 20260906042237 | 23 | 141 | 0.0 | 0.0 | 0.00 | 0.00 | 0.00 | 93 | 1017.7 |
| 20260906041720 | 23 | 94 | 0.0 | 0.0 | 0.00 | 0.00 | 0.00 | 92 | 1017.6 |
| 20260906041220 | 23 | 105 | 0.0 | 0.0 | 0.00 | 0.00 | 0.00 | 92 | 1017.9 |
| 20260906040220 | 23 | 111 | 0.0 | 1.6 | 0.00 | 0.00 | 0.00 | 93 | 1017.7 |
| 20260906035720 | 23 | 111 | 0.0 | 1.6 | 0.00 | 0.00 | 0.00 | 92 | 1017.7 |
| 20260906035219 | 23 | 129 | 0.0 | 0.0 | 0.00 | 0.00 | 0.00 | 92 | 1017.7 |
| 20260906034216 | 23 | 124 | 0.0 | 0.0 | 0.00 | 0.00 | 0.00 | 91 | 1017.7 |
| 20260906033719 | 23 | 124 | 0.0 | 0.0 | 0.00 | 0.00 | 0.00 | 91 | 1017.7 |
| 20260906033212 | 23 | 109 | 0.0 | 0.0 | 0.00 | 0.00 | 0.00 | 91 | 1017.9 |
| 20260906032712 | 23 | 92 | 0.0 | 0.0 | 0.00 | 0.00 | 0.00 | 90 | 1017.7 |
| 20260906031710 | 23 | 90 | 0.0 | 0.0 | 0.00 | 0.00 | 0.00 | 90 | 1017.7 |
| 20260906031209 | 24 | 117 | 0.0 | 0.0 | 0.00 | 0.00 | 0.00 | 90 | 1017.7 |
| 20260906030710 | 24 | 112 | 0.0 | 0.0 | 0.00 | 0.00 | 0.00 | 90 | 1017.7 |
| 20260906030205 | 24 | 117 | 0.0 | 0.0 | 0.00 | 0.00 | 0.00 | 89 | 1017.9 |
| 20260906025657 | 24 | 124 | 0.0 | 0.0 | 0.00 | 0.00 | 0.00 | 89 | 1017.7 |
| 20260906025152 | 24 | 127 | 0.0 | 0.0 | 0.00 | 0.00 | 0.00 | 88 | 1017.6 |
| 20260906024647 | 24 | 120 | 0.0 | 0.0 | 0.00 | 0.00 | 0.00 | 88 | 1017.6 |
| 20260906024139 | 25 | 113 | 0.0 | 0.0 | 0.00 | 0.00 | 0.00 | 88 | 1017.6 |
| 20260906023635 | 25 | 122 | 0.0 | 0.0 | 0.00 | 0.00 | 0.00 | 88 | 1017.9 |
| 20260906023129 | 25 | 114 | 0.0 | 0.0 | 0.00 | 0.00 | 0.00 | 88 | 1017.9 |
| 20260906022622 | 25 | 155 | 0.0 | 0.0 | 0.00 | 0.00 | 0.00 | 87 | 1017.9 |
| 20260906022116 | 25 | 140 | 0.0 | 0.0 | 0.00 | 0.00 | 0.00 | 87 | 1017.9 |
| 20260906021611 | 25 | 142 | 0.0 | 0.0 | 0.00 | 0.00 | 0.00 | 87 | 1017.7 |
| 20260906021104 | 25 | 109 | 0.0 | 0.0 | 0.00 | 0.00 | 0.00 | 87 | 1017.6 |
| 20260906020052 | 25 | 132 | 0.0 | 0.0 | 0.00 | 0.00 | 0.00 | 86 | 1017.3 |
| 20260906015550 | 25 | 121 | 0.0 | 0.0 | 0.00 | 0.00 | 0.00 | 86 | 1017.1 |
| 20260906015049 | 25 | 136 | 0.0 | 0.0 | 0.00 | 0.00 | 0.00 | 85 | 1016.9 |
| 20260906014550 | 25 | 136 | 0.0 | 0.0 | 0.00 | 0.00 | 0.00 | 84 | 1016.7 |
| 20260906014048 | 25 | 102 | 0.0 | 0.0 | 0.00 | 0.00 | 0.00 | 84 | 1016.6 |
| 20260906013550 | 25 | 134 | 0.0 | 0.0 | 0.00 | 0.00 | 0.00 | 83 | 1016.4 |
| 20260906013050 | 25 | 131 | 0.0 | 0.0 | 0.00 | 0.00 | 0.00 | 82 | 1016.3 |
| 20260906012548 | 25 | 200 | 0.0 | 0.0 | 0.00 | 0.00 | 0.00 | 81 | 1016.1 |
| 20260906012051 | 26 | 152 | 0.0 | 0.0 | 0.00 | 0.00 | 0.00 | 81 | 1015.9 |
| 20260906011550 | 26 | 205 | 0.0 | 0.0 | 0.00 | 0.00 | 0.00 | 80 | 1015.8 |
| 20260906011052 | 26 | 167 | 0.0 | 1.6 | 0.00 | 0.00 | 0.00 | 79 | 1015.7 |
| 20260906010546 | 26 | 136 | 0.0 | 1.6 | 0.00 | 0.00 | 0.00 | 79 | 1015.6 |
| 20260906010046 | 26 | 135 | 0.0 | 1.6 | 0.00 | 0.00 | 0.00 | 78 | 1015.6 |
| 20260906005545 | 26 | 212 | 0.0 | 1.6 | 0.00 | 0.00 | 0.00 | 78 | 1015.6 |
| 20260906004546 | 26 | 129 | 0.0 | 0.0 | 0.00 | 0.00 | 0.00 | 76 | 1015.4 |
| 20260906004044 | 27 | 146 | 0.0 | 0.0 | 0.00 | 0.00 | 0.00 | 75 | 1015.4 |
| 20260906003546 | 27 | 125 | 0.0 | 0.0 | 0.00 | 0.00 | 0.00 | 74 | 1015.3 |
| 20260906002547 | 27 | 103 | 0.0 | 0.0 | 0.00 | 0.00 | 0.00 | 73 | 1015.2 |
| 20260906002043 | 27 | 103 | 0.0 | 0.0 | 0.00 | 0.00 | 0.00 | 72 | 1015.3 |
| 20260906001541 | 27 | 151 | 0.0 | 0.0 | 0.00 | 0.00 | 0.00 | 71 | 1015.3 |
| 20260906001042 | 28 | 149 | 0.0 | 0.0 | 0.00 | 0.00 | 0.00 | 71 | 1015.3 |
| 20260906000541 | 28 | 146 | 0.0 | 0.0 | 0.00 | 0.00 | 0.00 | 71 | 1015.2 |
| 20260906000041 | 28 | 112 | 0.0 | 0.0 | 0.00 | 0.00 | 0.00 | 70 | 1015.2 |
| 20260905235540 | 28 | 116 | 0.0 | 0.0 | 0.00 | 0.00 | 0.00 | 69 | 1015.1 |
| 20260905235042 | 28 | 108 | 0.0 | 3.2 | 0.00 | 0.00 | 0.00 | 68 | 1015.1 |
| 20260905234540 | 29 | 113 | 0.0 | 6.4 | 0.00 | 0.00 | 0.00 | 67 | 1015.1 |
| 20260905234042 | 29 | 89 | 0.0 | 6.4 | 0.00 | 0.00 | 0.00 | 67 | 1015.0 |
| 20260905233538 | 29 | 84 | 0.0 | 6.4 | 0.00 | 0.00 | 0.00 | 66 | 1015.1 |
| 20260905233037 | 30 | 88 | 0.0 | 9.7 | 0.00 | 0.00 | 0.00 | 66 | 1015.2 |
| 20260905232539 | 30 | 39 | 0.0 | 9.7 | 0.00 | 0.00 | 0.00 | 66 | 1015.3 |
| 20260905232038 | 30 | 72 | 0.0 | 3.2 | 0.00 | 0.00 | 0.00 | 65 | 1015.2 |
| 20260905231538 | 30 | 82 | 0.0 | 6.4 | 0.00 | 0.00 | 0.00 | 66 | 1015.2 |
| 20260905230536 | 30 | 125 | 1.6 | 11.3 | 0.00 | 0.00 | 0.00 | 66 | 1015.0 |
| 20260905230038 | 30 | 65 | 0.0 | 11.3 | 0.00 | 0.00 | 0.00 | 65 | 1015.0 |
| 20260905225538 | 30 | 65 | 0.0 | 3.2 | 0.00 | 0.00 | 0.00 | 66 | 1015.1 |
| 20260905225033 | 30 | 103 | 0.0 | 6.4 | 0.00 | 0.00 | 0.00 | 66 | 1015.1 |
| 20260905223532 | 30 | 66 | 1.6 | 8.0 | 0.00 | 0.00 | 0.00 | 66 | 1014.7 |
| 20260905223034 | 30 | 64 | 1.6 | 8.0 | 0.00 | 0.00 | 0.00 | 65 | 1014.7 |
| 20260905222535 | 30 | 47 | 1.6 | 11.3 | 0.00 | 0.00 | 0.00 | 65 | 1014.6 |
| 20260905222036 | 30 | 63 | 1.6 | 11.3 | 0.00 | 0.00 | 0.00 | 66 | 1014.7 |
| 20260905221537 | 30 | 104 | 3.2 | 12.9 | 0.00 | 0.00 | 0.00 | 66 | 1014.9 |
| 20260905221037 | 30 | 93 | 4.8 | 16.1 | 0.00 | 0.00 | 0.00 | 66 | 1014.7 |
| 20260905220532 | 30 | 74 | 3.2 | 16.1 | 0.00 | 0.00 | 0.00 | 65 | 1014.4 |
| 20260905220033 | 30 | 71 | 1.6 | 14.5 | 0.00 | 0.00 | 0.00 | 67 | 1014.5 |
| 20260905215533 | 30 | 84 | 3.2 | 12.9 | 0.00 | 0.00 | 0.00 | 68 | 1014.7 |
| 20260905215029 | 30 | 62 | 3.2 | 12.9 | 0.00 | 0.00 | 0.00 | 67 | 1014.7 |
| 20260905214531 | 30 | 78 | 1.6 | 9.7 | 0.00 | 0.00 | 0.00 | 67 | 1014.7 |
| 20260905214030 | 30 | 70 | 1.6 | 9.7 | 0.00 | 0.00 | 0.00 | 70 | 1014.6 |
| 20260905213531 | 30 | 84 | 1.6 | 14.5 | 0.00 | 0.00 | 0.00 | 70 | 1014.8 |
| 20260905213029 | 30 | 63 | 1.6 | 14.5 | 0.00 | 0.00 | 0.00 | 69 | 1014.8 |
| 20260905212530 | 30 | 98 | 1.6 | 16.1 | 0.00 | 0.00 | 0.00 | 69 | 1015.0 |
| 20260905212030 | 30 | 49 | 1.6 | 16.1 | 0.00 | 0.00 | 0.00 | 70 | 1015.1 |
| 20260905211030 | 30 | 78 | 1.6 | 12.9 | 0.00 | 0.00 | 0.00 | 71 | 1015.1 |
| 20260905210528 | 30 | 37 | 1.6 | 12.9 | 0.00 | 0.00 | 0.00 | 71 | 1015.1 |
| 20260905205530 | 30 | 65 | 1.6 | 9.7 | 0.00 | 0.00 | 0.00 | 70 | 1015.5 |
| 20260905205029 | 30 | 63 | 1.6 | 9.7 | 0.00 | 0.00 | 0.00 | 73 | 1015.5 |
| 20260905204530 | 30 | 67 | 1.6 | 9.7 | 0.00 | 0.00 | 0.00 | 74 | 1015.5 |
| 20260905204026 | 30 | 30 | 1.6 | 8.0 | 0.00 | 0.00 | 0.00 | 73 | 1015.6 |
| 20260905203527 | 29 | 44 | 3.2 | 16.1 | 0.00 | 0.00 | 0.00 | 76 | 1015.7 |
| 20260905203022 | 29 | 81 | 3.2 | 16.1 | 0.00 | 0.00 | 0.00 | 77 | 1015.8 |
| 20260905202514 | 29 | 21 | 1.6 | 14.5 | 0.00 | 0.00 | 0.00 | 75 | 1015.9 |
| 20260905202009 | 29 | 49 | 1.6 | 9.7 | 0.00 | 0.00 | 0.00 | 77 | 1015.9 |
| 20260905201510 | 28 | 82 | 1.6 | 8.0 | 0.00 | 0.00 | 0.00 | 78 | 1015.9 |
| 20260905201009 | 28 | 48 | 0.0 | 8.0 | 0.00 | 0.00 | 0.00 | 79 | 1016.0 |
| 20260905200011 | 28 | 53 | 1.6 | 9.7 | 0.00 | 0.00 | 0.00 | 81 | 1016.2 |
| 20260905195510 | 28 | 46 | 0.0 | 6.4 | 0.00 | 0.00 | 0.00 | 81 | 1016.3 |
| 20260905195007 | 28 | 58 | 0.0 | 6.4 | 0.00 | 0.00 | 0.00 | 81 | 1016.4 |
| 20260905194507 | 28 | 70 | 0.0 | 4.8 | 0.00 | 0.00 | 0.00 | 81 | 1016.6 |
| 20260905194004 | 28 | 84 | 0.0 | 6.4 | 0.00 | 0.00 | 0.00 | 83 | 1016.7 |
| 20260905193502 | 27 | 95 | 0.0 | 6.4 | 0.00 | 0.00 | 0.00 | 83 | 1016.6 |
| 20260905193003 | 27 | 98 | 1.6 | 12.9 | 0.00 | 0.00 | 0.00 | 84 | 1016.6 |
| 20260905192504 | 27 | 32 | 1.6 | 12.9 | 0.00 | 0.00 | 0.00 | 84 | 1016.7 |
| 20260905192003 | 27 | 79 | 1.6 | 16.1 | 0.00 | 0.00 | 0.00 | 84 | 1016.7 |
| 20260905191503 | 27 | 115 | 1.6 | 16.1 | 0.00 | 0.00 | 0.00 | 84 | 1016.7 |
| 20260905191004 | 27 | 85 | 0.0 | 6.4 | 0.00 | 0.00 | 0.00 | 84 | 1016.7 |
| 20260905190504 | 27 | 114 | 0.0 | 6.4 | 0.00 | 0.00 | 0.00 | 85 | 1016.8 |
| 20260905190005 | 26 | 39 | 0.0 | 9.7 | 0.00 | 0.00 | 0.00 | 85 | 1016.7 |
| 20260905185458 | 26 | 65 | 0.0 | 9.7 | 0.00 | 0.00 | 0.00 | 84 | 1016.8 |
| 20260905182955 | 25 | 92 | 0.0 | 1.6 | 0.00 | 0.00 | 0.00 | 90 | 1017.2 |
| 20260905182457 | 25 | 141 | 0.0 | 0.0 | 0.00 | 0.00 | 0.00 | 89 | 1017.4 |
| 20260905181955 | 25 | 117 | 0.0 | 0.0 | 0.00 | 0.00 | 0.00 | 90 | 1017.6 |
| 20260905181454 | 25 | 75 | 0.0 | 0.0 | 0.00 | 0.00 | 0.00 | 89 | 1017.7 |
| 20260905180450 | 24 | 127 | 0.0 | 1.6 | 0.00 | 0.00 | 0.00 | 90 | 1017.9 |
| 20260905175951 | 24 | 165 | 0.0 | 1.6 | 0.00 | 0.00 | 0.00 | 90 | 1017.9 |
| 20260905175448 | 24 | 165 | 0.0 | 1.6 | 0.00 | 0.00 | 0.00 | 90 | 1017.9 |
| 20260905174948 | 24 | 109 | 0.0 | 1.6 | 0.00 | 0.00 | 0.00 | 91 | 1017.9 |
| 20260905174450 | 23 | 141 | 0.0 | 1.6 | 0.00 | 0.00 | 0.00 | 91 | 1017.9 |
| 20260905173948 | 23 | 141 | 0.0 | 1.6 | 0.00 | 0.00 | 0.00 | 91 | 1018.2 |
| 20260905173450 | 23 | 169 | 0.0 | 1.6 | 0.00 | 0.00 | 0.00 | 92 | 1018.2 |
| 20260905172952 | 23 | 162 | 0.0 | 1.6 | 0.00 | 0.00 | 0.00 | 92 | 1018.3 |
| 20260905172446 | 23 | 121 | 0.0 | 8.0 | 0.00 | 0.00 | 0.00 | 92 | 1018.3 |
| 20260905171942 | 23 | 172 | 0.0 | 8.0 | 0.00 | 0.00 | 0.00 | 91 | 1018.4 |
| 20260905171435 | 23 | 120 | 0.0 | 4.8 | 0.00 | 0.00 | 0.00 | 91 | 1018.3 |
| 20260905170929 | 23 | 127 | 0.0 | 1.6 | 0.00 | 0.00 | 0.00 | 91 | 1018.3 |
| 20260905170422 | 23 | 110 | 0.0 | 3.2 | 0.00 | 0.00 | 0.00 | 92 | 1018.3 |
| 20260905165411 | 23 | 125 | 0.0 | 1.6 | 0.00 | 0.00 | 0.00 | 94 | 1018.2 |
| 20260905164905 | 22 | 68 | 0.0 | 1.6 | 0.00 | 0.00 | 0.00 | 94 | 1018.1 |
| 20260905164405 | 22 | 89 | 0.0 | 1.6 | 0.00 | 0.00 | 0.00 | 94 | 1018.1 |
| 20260905163404 | 22 | 64 | 0.0 | 4.8 | 0.00 | 0.00 | 0.00 | 94 | 1018.1 |
| 20260905162903 | 22 | 78 | 0.0 | 1.6 | 0.00 | 0.00 | 0.00 | 94 | 1018.3 |
| 20260905162400 | 22 | 73 | 0.0 | 1.6 | 0.00 | 0.00 | 0.00 | 95 | 1018.4 |
| 20260905161902 | 22 | 73 | 0.0 | 0.0 | 0.00 | 0.00 | 0.00 | 95 | 1018.3 |
| 20260905160900 | 21 | 127 | 0.0 | 0.0 | 0.00 | 0.00 | 0.00 | 95 | 1018.3 |
| 20260905155902 | 21 | 56 | 0.0 | 3.2 | 0.00 | 0.00 | 0.00 | 95 | 1018.3 |